Regional Weather Roundup
Issued by NWS Bismarck, ND

Home | Current Version | Previous Version | Text Only | Print | Product List | Glossary On
Versions: 1 2 3 4 5 6 7 8 9 10 11 12 13 14 15 16 17 18 19 20 21 22 23 24 25 26 27 28 29 30 31 32 33 34 35 36 37 38 39 40 41 42 43 44 45 46 47 48 49 50
000
ASUS43 KBIS 211810
RWRBIS

NWR BROADCAST TEXT
NATIONAL WEATHER SERVICE BISMARCK ND
100 PM CDT FRI JUL 21 2017

NOTE: "FAIR" INDICATES FEW OR NO CLOUDS BELOW 12,000 FEET WITH NO
SIGNIFICANT WEATHER AND/OR OBSTRUCTIONS TO VISIBILITY.


CITY           SKY/WX    TMP DP  RH WIND       PRES   REMARKS
WILLISTON      MOSUNNY   85  60  42 N7        29.84R
MINOT          CLOUDY    71  64  78 N12G17    29.80R
MINOT AFB      CLOUDY    72  64  75 E10       29.77F
BISMARCK       MOSUNNY   84  68  58 S7        29.82F
DICKINSON      SUNNY     85  64  49 CALM      29.85R
GARRISON         N/A     77  65  66 VRB3      29.84R
HETTINGER ARPT MOSUNNY   84  62  47 CALM      29.87S
JAMESTOWN      SUNNY     88  60  38 E7        29.81S
HAZEN            N/A     82  64  54 S6        29.83S
LINTON           N/A    N/A N/A N/A VRB3      29.85F
MANDAN         FAIR      82  68  61 VRB7G15   29.84S
STANLEY        FAIR      77  66  69 SE13      29.84S
TIOGA          FAIR      82  55  39 VRB5      29.85R
WATFORD CITY   FAIR      86  57  37 VRB5G12   29.82R
$$

CITY           SKY/WX    TMP DP  RH WIND       PRES   REMARKS
GRAND FORKS    CLOUDY    83  73  72 VRB3      29.77F THUNDER
GRAND FORKS AF PTSUNNY   86  69  56 S3        29.79S HX  90
DEVILS LAKE    MOSUNNY   84  66  54 SW13      29.79F
FARGO          MOSUNNY   90  69  50 W6        29.77S HX  94
CAVALIER       MOCLDY    75  72  88 E8        29.78F
GRAFTON        MOCLDY    81  72  74 E6        29.81S
GWINNER        CLEAR     88  73  62 CALM      29.79S HX  96
LANGDON        FAIR      81  75  83 E9G16     29.82R
ROLLA            N/A     70  70 100 NE12      29.82F
$$

CITY           SKY/WX    TMP DP  RH WIND       PRES   REMARKS
ABERDEEN       CLOUDY    84  72  67 VRB3      29.81F
MOBRIDGE       SUNNY     87  74  64 CALM      29.79F HX  95
BUFFALO          N/A     86  59  39 W17G23    29.84R
RAPID CITY     SUNNY     90  57  32 N17G23    29.91S
GLASGOW        SUNNY     84  39  20 MISG      29.88S
SIDNEY         SUNNY     89  57  33 NW13      29.83R
WOLF POINT     SUNNY     90  44  20 W18G28    29.85S
GLENDIVE       SUNNY     87  54  32 NW17      29.89S
MILES CITY     SUNNY     90  28  11 NW15G24   29.94S
BAKER          SUNNY     88  54  31 NW17G25   29.91R
$$

CITY           SKY/WX    TMP DP  RH WIND       PRES   REMARKS
BILLINGS       SUNNY     85  33  15 NW8G21    30.03F
GREAT FALLS    SUNNY     79  21  11 SW18G29   30.01S
REGINA         MOSUNNY   79  55  44 SW8       29.81S
ESTEVAN        MOSUNNY   75  64  69 SW6       29.82R
$$





USA.gov is the U.S. government's official web portal to all federal, state and local government web resources and services.